• In Belarus
  • List of Countries
  • For 7 days
  • Water Temperature
  • Satellite Maps
  • Weather Map
  • Weather Widgets
  • user-avatar
    Login

    Hourly Weather Mingachevir

    Today, 24 October, Tuesday

    Time Temperature Precipitation Wind Pressure Humidity
    00:00 +15°C° 0 mm 4 mps 756 mmHg 75%
    01:00 +15°C° 0 mm 4 mps 756 mmHg 75%
    02:00 +16°C° 0 mm 3 mps 756 mmHg 75%
    03:00 +14°C° 0 mm 3 mps 755 mmHg 76%
    04:00 +15°C° 0 mm 2 mps 756 mmHg 76%
    05:00 +15°C° 0 mm 2 mps 756 mmHg 76%
    06:00 +15°C° 0 mm 1 mps 756 mmHg 76%
    07:00 +16°C° 0 mm 1 mps 756 mmHg 73%
    08:00 +16°C° 0 mm 1 mps 755 mmHg 70%
    09:00 +18°C° 0 mm 1 mps 755 mmHg 67%
    10:00 +19°C° 0 mm 1 mps 755 mmHg 64%
    11:00 +20°C° 0 mm 1 mps 755 mmHg 61%
    12:00 +21°C° 0 mm 1 mps 754 mmHg 58%
    13:00 +21°C° 0 mm 1 mps 754 mmHg 56%
    14:00 +21°C° 0 mm 1 mps 754 mmHg 55%
    15:00 +22°C° 0 mm 1 mps 754 mmHg 53%
    16:00 +21°C° 0 mm 1 mps 754 mmHg 58%
    17:00 +20°C° 0 mm 1 mps 754 mmHg 62%
    18:00 +19°C° 0 mm 1 mps 755 mmHg 66%
    19:00 +19°C° 0 mm 1 mps 755 mmHg 67%
    20:00 +18°C° 0 mm 1 mps 755 mmHg 68%
    21:00 +18°C° 0 mm 1 mps 755 mmHg 69%
    22:00 +18°C° 0 mm 1 mps 755 mmHg 70%
    23:00 +16°C° 0 mm 1 mps 755 mmHg 71%

    Tomorrow, 25 October, Wednesday

    Time Temperature Precipitation Wind Pressure Humidity
    00:00 +16°C° 0 mm 1 mps 755 mmHg 73%
    01:00 +15°C° 0 mm 1 mps 755 mmHg 73%
    02:00 +15°C° 0 mm 1 mps 756 mmHg 74%
    03:00 +15°C° 0 mm 1 mps 756 mmHg 74%
    04:00 +15°C° 0 mm 1 mps 756 mmHg 73%
    05:00 +15°C° 0 mm 1 mps 756 mmHg 72%
    06:00 +15°C° 0 mm 2 mps 756 mmHg 72%
    07:00 +16°C° 0 mm 2 mps 756 mmHg 64%
    08:00 +18°C° 0 mm 2 mps 756 mmHg 56%
    09:00 +20°C° 0 mm 2 mps 756 mmHg 49%
    10:00 +21°C° 0 mm 2 mps 755 mmHg 43%
    11:00 +23°C° 0 mm 2 mps 755 mmHg 37%
    12:00 +25°C° 0 mm 2 mps 755 mmHg 32%
    13:00 +25°C° 0 mm 2 mps 754 mmHg 30%
    14:00 +25°C° 0 mm 1 mps 754 mmHg 29%
    15:00 +26°C° 0 mm 1 mps 754 mmHg 28%
    16:00 +24°C° 0 mm 1 mps 754 mmHg 31%
    17:00 +23°C° 0 mm 1 mps 754 mmHg 35%
    18:00 +22°C° 0 mm 1 mps 754 mmHg 39%
    19:00 +21°C° 0 mm 1 mps 754 mmHg 39%
    20:00 +21°C° 0 mm 1 mps 755 mmHg 40%
    21:00 +18°C° 0 mm 0 mps 755 mmHg 40%
    22:00 +20°C° 0 mm 1 mps 754 mmHg 40%
    23:00 +20°C° 0 mm 1 mps 754 mmHg 40%

    Day after tomorrow, 26 October, Thursday

    Time Temperature Precipitation Wind Pressure Humidity
    00:00 +20°C° 0 mm 1 mps 754 mmHg 39%
    01:00 +18°C° 0 mm 2 mps 754 mmHg 39%
    02:00 +18°C° 0 mm 2 mps 754 mmHg 38%
    03:00 +18°C° 0 mm 3 mps 753 mmHg 37%
    04:00 +18°C° 0 mm 3 mps 753 mmHg 37%
    05:00 +18°C° 0 mm 3 mps 753 mmHg 36%
    06:00 +18°C° 0 mm 3 mps 753 mmHg 36%
    07:00 +20°C° 0 mm 4 mps 754 mmHg 32%
    08:00 +21°C° 0 mm 4 mps 754 mmHg 29%
    09:00 +23°C° 0 mm 4 mps 754 mmHg 26%
    10:00 +26°C° 0 mm 5 mps 754 mmHg 25%
    11:00 +27°C° 0 mm 5 mps 753 mmHg 23%
    12:00 +28°C° 0 mm 5 mps 753 mmHg 21%
    13:00 +28°C° 0 mm 5 mps 753 mmHg 22%
    14:00 +28°C° 0 mm 4 mps 753 mmHg 22%
    15:00 +28°C° 0 mm 4 mps 753 mmHg 23%
    16:00 +26°C° 0 mm 3 mps 753 mmHg 26%
    17:00 +25°C° 0 mm 2 mps 753 mmHg 30%
    18:00 +23°C° 0 mm 1 mps 754 mmHg 34%
    19:00 +21°C° 0 mm 2 mps 754 mmHg 39%
    20:00 +20°C° 0 mm 2 mps 755 mmHg 44%
    21:00 +19°C° 0 mm 3 mps 755 mmHg 50%
    22:00 +18°C° 0 mm 3 mps 755 mmHg 55%
    23:00 +18°C° 0 mm 3 mps 755 mmHg 61%

    27 October, Friday

    Time Temperature Precipitation Wind Pressure Humidity
    00:00 +17°C° 0 mm 2 mps 755 mmHg 66%
    01:00 +16°C° 0 mm 2 mps 755 mmHg 70%
    02:00 +16°C° 0 mm 2 mps 755 mmHg 74%
    03:00 +15°C° 0 mm 1 mps 755 mmHg 77%
    04:00 +15°C° 0 mm 1 mps 755 mmHg 80%
    05:00 +14°C° 0 mm 1 mps 756 mmHg 83%
    06:00 +14°C° 0 mm 1 mps 756 mmHg 85%
    07:00 +15°C° 0 mm 1 mps 756 mmHg 80%
    08:00 +16°C° 0 mm 1 mps 756 mmHg 76%
    09:00 +17°C° 0 mm 2 mps 756 mmHg 71%
    10:00 +18°C° 0 mm 2 mps 755 mmHg 67%
    11:00 +19°C° 0 mm 2 mps 755 mmHg 64%
    12:00 +20°C° 0 mm 2 mps 754 mmHg 60%
    13:00 +20°C° 0 mm 2 mps 754 mmHg 59%
    14:00 +20°C° 0 mm 2 mps 754 mmHg 58%
    15:00 +20°C° 0 mm 2 mps 753 mmHg 57%
    16:00 +19°C° 0 mm 2 mps 753 mmHg 61%
    17:00 +18°C° 0 mm 2 mps 754 mmHg 66%
    18:00 +18°C° 0 mm 1 mps 754 mmHg 70%
    19:00 +17°C° 0 mm 2 mps 754 mmHg 72%
    20:00 +16°C° 0 mm 2 mps 754 mmHg 74%
    21:00 +16°C° 0 mm 2 mps 754 mmHg 76%
    22:00 +16°C° 0 mm 2 mps 754 mmHg 78%
    23:00 +15°C° 0 mm 2 mps 754 mmHg 81%

    28 October, Saturday

    Time Temperature Precipitation Wind Pressure Humidity
    00:00 +15°C° 0 mm 2 mps 754 mmHg 83%
    01:00 +15°C° 0 mm 1 mps 754 mmHg 85%
    02:00 +14°C° 0 mm 1 mps 754 mmHg 87%
    03:00 +14°C° 0 mm 1 mps 753 mmHg 89%
    04:00 +14°C° 0 mm 1 mps 753 mmHg 88%
    05:00 +13°C° 0 mm 1 mps 753 mmHg 88%
    06:00 +13°C° 0 mm 1 mps 753 mmHg 87%
    07:00 +15°C° 0 mm 1 mps 753 mmHg 81%
    08:00 +16°C° 0 mm 2 mps 752 mmHg 75%
    09:00 +17°C° 0 mm 2 mps 752 mmHg 69%
    10:00 +18°C° 0 mm 2 mps 752 mmHg 61%
    11:00 +20°C° 0 mm 2 mps 751 mmHg 54%
    12:00 +21°C° 0 mm 2 mps 750 mmHg 47%
    13:00 +21°C° 0 mm 2 mps 750 mmHg 44%
    14:00 +23°C° 0 mm 2 mps 749 mmHg 42%
    15:00 +23°C° 0 mm 2 mps 749 mmHg 40%
    16:00 +21°C° 0 mm 2 mps 749 mmHg 42%
    17:00 +20°C° 0 mm 2 mps 749 mmHg 44%
    18:00 +19°C° 0 mm 2 mps 749 mmHg 46%
    19:00 +19°C° 0 mm 3 mps 749 mmHg 47%
    20:00 +19°C° 0 mm 4 mps 749 mmHg 47%
    21:00 +19°C° 0 mm 5 mps 749 mmHg 48%
    22:00 +19°C° 0 mm 4 mps 748 mmHg 50%
    23:00 +19°C° 0 mm 4 mps 748 mmHg 51%

    29 October, Sunday

    Time Temperature Precipitation Wind Pressure Humidity
    00:00 +19°C° 0 mm 4 mps 748 mmHg 53%
    01:00 +19°C° 0 mm 4 mps 747 mmHg 54%
    02:00 +18°C° 0 mm 4 mps 747 mmHg 55%
    03:00 +18°C° 0 mm 4 mps 747 mmHg 56%
    04:00 +18°C° 0 mm 4 mps 747 mmHg 57%
    05:00 +18°C° 0 mm 3 mps 747 mmHg 58%
    06:00 +17°C° 0 mm 3 mps 747 mmHg 59%
    07:00 +19°C° 0 mm 4 mps 748 mmHg 54%
    08:00 +20°C° 0 mm 4 mps 748 mmHg 48%
    09:00 +22°C° 0 mm 5 mps 748 mmHg 43%
    10:00 +23°C° 0 mm 5 mps 748 mmHg 38%
    11:00 +25°C° 0 mm 5 mps 748 mmHg 34%
    12:00 +27°C° 0 mm 6 mps 748 mmHg 30%
    13:00 +27°C° 0 mm 6 mps 748 mmHg 30%
    14:00 +27°C° 0 mm 6 mps 748 mmHg 30%
    15:00 +27°C° 0 mm 5 mps 748 mmHg 30%
    16:00 +26°C° 0 mm 5 mps 748 mmHg 33%
    17:00 +23°C° 0 mm 4 mps 749 mmHg 35%
    18:00 +22°C° 0 mm 3 mps 749 mmHg 38%
    19:00 +21°C° 0 mm 3 mps 750 mmHg 39%
    20:00 +21°C° 0 mm 3 mps 750 mmHg 40%
    21:00 +21°C° 0 mm 3 mps 750 mmHg 41%
    22:00 +20°C° 0 mm 3 mps 751 mmHg 42%
    23:00 +20°C° 0 mm 3 mps 751 mmHg 43%

    30 October, Monday

    Time Temperature Precipitation Wind Pressure Humidity
    00:00 +19°C° 0 mm 2 mps 751 mmHg 44%
    01:00 +19°C° 0 mm 2 mps 751 mmHg 44%
    02:00 +19°C° 0 mm 2 mps 752 mmHg 45%
    03:00 +19°C° 0 mm 2 mps 752 mmHg 45%
    04:00 +18°C° 0 mm 2 mps 752 mmHg 46%
    05:00 +18°C° 0 mm 2 mps 752 mmHg 47%
    06:00 +17°C° 0 mm 2 mps 753 mmHg 48%
    07:00 +19°C° 0 mm 2 mps 753 mmHg 44%
    08:00 +20°C° 0 mm 2 mps 753 mmHg 41%
    09:00 +23°C° 0 mm 2 mps 753 mmHg 37%
    10:00 +24°C° 0 mm 2 mps 753 mmHg 35%
    11:00 +25°C° 0 mm 3 mps 753 mmHg 33%
    12:00 +26°C° 0 mm 3 mps 753 mmHg 31%
    13:00 +26°C° 0 mm 3 mps 753 mmHg 31%
    14:00 +26°C° 0 mm 3 mps 753 mmHg 31%
    15:00 +26°C° 0 mm 3 mps 753 mmHg 31%
    16:00 +25°C° 0 mm 2 mps 753 mmHg 34%
    17:00 +24°C° 0 mm 2 mps 754 mmHg 37%
    18:00 +22°C° 0 mm 1 mps 754 mmHg 41%
    19:00 +22°C° 0 mm 1 mps 754 mmHg 42%
    20:00 +21°C° 0 mm 1 mps 754 mmHg 43%
    21:00 +21°C° 0 mm 1 mps 754 mmHg 44%
    22:00 +20°C° 0 mm 1 mps 754 mmHg 47%
    23:00 +19°C° 0 mm 1 mps 754 mmHg 50%
    Show more